Create Custom Reports and Graphics: Custom Report

Lindcove R.E.C.

Current Conditions

8/12/22 1:30 PM (-07:00)
Updated Every 15 Minutes
Temp 94.8 °F   0.5
Upper Temp 90.0 °F   0.4
Temp Inversion -4.8 °F   0.8
RH 25 %   1
Dew Pt 53.3 °F   0.7
Wind Dir WSW | 252 °
Wind Spd 4.9 mph   1.3
Wind Gust 11.6 mph   3.1
BatVolt 13.0 V   0.0

Today & Yesterday

Lindcove R.E.C.

8/12/22 1:30 PM (-07:00)
Updated Every 15 Minutes
Daily Max Temp 95.5 °F   0.4
Time of Max Temp 1256
Daily Min Temp 63.3 °F   2.0
Time of Min Temp 0642
Upper Max Temp 91.3 °F   0.2
Upper Min Temp 65.8 °F   2.6
Daily Max Wind 14.5 mph   0.0
Time of Max Wind 0945
Max Wind Dir SSW | 209 °
Daily Rain 0.00 In
Yest MaxT 98.8 °F
Yest MinT 65.3 °F
Yest MaxGst 14.5 mph
Yest Rain 0.00 In
Monthly Rain 0.09 In
Seasonal Rainfall 0.09 In

Daily Meteorological Summary

Last 30 Days

Daily Data | America/Los_Angeles
as of 8/12/22 1:31 PM PDT
Date Daily Max Temp (°F) Time of Max Temp Daily Min Temp (°F) Time of Min Temp Daily Rain (In) Seasonal Rainfall (In) Wind Spd (mph) Daily Max Wind (mph) Time of Max Wind Max Wind Dir (°) Dew Pt (°F) Max RH (%) Min RH (%) Upper Max Temp (°F) Max Upper Temp Time Upper Min Temp (°F) Min Upper Temp Time Max Temp Inversion (°F) Time of Max Temp Inversion Min Temp Inversion (°F) Time of Min Temp Inversion Max 1 Min Rain (In) Max 1 Min Rain Time Max 15 Min Rain (In) Max 15 Min Precip Time Max 60 Min Rain (In) Max 60 Min Rain Time MinBV Day (V)
8/11/22 98.8 1604 65.3 0556 0.00 0.09 2.1 14.5 1011 SSW | 199 57.7 83 20 96.8 1727 68.4 0648 10.1 2151 -6.4 1208 - - - - - - 12.4
8/10/22 96.6 1602 64.6 0638 0.00 0.09 2.3 12.7 1148 SW | 217 57.3 76 23 93.6 1814 66.0 0612 8.8 2113 -6.0 1444 - - - - - - 12.5
8/9/22 98.7 1559 68.9 0656 0.00 0.09 1.9 13.2 1102 SW | 219 59.9 79 22 97.0 1659 70.4 0652 8.9 2027 -5.7 1135 - - - - - - 12.5
8/8/22 98.3 1614 68.0 0716 0.00 0.09 2.3 14.7 1024 SW | 222 59.0 78 21 96.3 1744 70.7 0636 7.4 2334 -6.1 1202 - - - - - - 12.5
8/7/22 99.5 1604 66.3 0611 0.00 0.09 2.3 13.8 1038 SW | 222 61.6 83 27 96.4 1812 68.3 0616 5.7 2052 -6.7 1135 - - - - - - 12.5
8/6/22 99.5 1611 66.6 0605 0.00 0.09 2.2 13.4 1059 SW | 219 63.5 89 28 95.7 1659 68.0 0633 5.6 0044 -6.7 1207 - - - - - - 12.5
8/5/22 92.5 1746 68.0 0620 0.09 0.09 1.6 8.8 0230 NE | 41 64.1 90 27 92.2 1723 69.9 0758 4.6 2033 -2.5 1356 0.01 0823 0.02 0644 0.05 0649 12.5
8/4/22 104.8 1423 74.2 0434 0.00 0.00 2.8 20.0 1724 NE | 34 62.2 75 21 100.2 1430 78.1 0648 8.6 0130 -6.0 1354 - - - - - - 12.4
8/3/22 104.4 1547 71.2 0603 0.00 0.00 2.2 13.4 1026 SW | 219 62.4 77 20 101.3 1626 75.0 0625 9.6 2230 -6.1 1228 - - - - - - 12.5
8/2/22 100.7 1606 70.2 0532 0.00 0.00 2.2 13.8 1033 SW | 221 60.3 71 24 98.7 1813 72.2 0612 8.7 2233 -5.8 1155 - - - - - - 12.4
8/1/22 103.7 1615 72.2 0354 0.00 0.00 2.1 15.3 1820 WNW | 291 62.9 93 21 99.5 1712 77.6 0059 10.3 0306 -6.8 1429 - - - - - - 12.5
7/31/22 103.8 1503 76.8 0635 0.00 0.00 2.4 17.5 1907 SSE | 160 60.1 70 13 99.8 1502 78.4 0729 5.6 0037 -6.7 1303 - - - - - - 12.5
7/30/22 105.6 1513 72.2 0531 0.00 0.00 2.1 13.4 1720 WNW | 290 60.8 72 17 102.6 1643 74.0 0500 8.9 0101 -6.7 1432 - - - - - - 12.5
7/29/22 106.7 1607 66.9 0549 0.00 0.00 1.9 10.7 1351 NW | 310 56.7 76 14 102.8 1806 72.3 0531 12.0 2309 -6.4 1610 - - - - - - 12.5
7/28/22 102.3 1436 69.3 0609 0.00 0.00 1.7 12.3 1118 WSW | 248 56.4 79 14 101.1 1638 74.4 0512 10.9 2348 -5.5 1150 - - - - - - 12.5
7/27/22 97.5 1637 66.1 0541 0.00 0.00 2.1 14.9 1122 SW | 222 55.9 83 17 98.1 1724 68.8 0643 7.4 0112 -5.7 1057 - - - - - - 12.5
7/26/22 101.5 1604 66.7 0618 0.00 0.00 2.3 11.4 1240 SW | 232 54.5 75 13 100.2 1703 70.3 0641 9.4 0121 -5.8 1216 - - - - - - 12.4
7/25/22 104.2 1543 62.5 0615 0.00 0.00 2.0 13.2 1229 W | 267 51.2 70 11 100.8 1730 68.6 0528 11.1 0119 -7.5 1150 - - - - - - 12.4
7/24/22 105.1 1603 61.0 0553 0.00 0.00 1.9 11.4 1143 WSW | 245 47.3 69 8 101.6 1740 67.1 0552 12.0 0205 -6.9 1152 - - - - - - 12.4
7/23/22 102.5 1539 61.4 0617 0.00 0.00 1.7 11.6 1501 SW | 220 43.1 75 6 99.9 1824 66.6 0604 14.9 0103 -6.4 1508 - - - - - - 12.4
7/22/22 105.1 1613 62.3 0530 0.00 0.00 2.4 13.8 1635 WNW | 295 47.2 68 9 102.1 1717 66.4 0517 13.5 0059 -6.7 1347 - - - - - - 12.4
7/21/22 105.6 1604 64.9 0605 0.00 0.00 2.3 16.0 1529 W | 261 48.9 74 10 102.3 1801 69.1 0614 13.3 0016 -6.9 1302 - - - - - - 12.5
7/20/22 106.4 1549 66.6 0542 0.00 0.00 2.4 14.5 0950 SW | 235 53.1 79 11 103.2 1729 70.6 0606 10.5 0031 -5.6 1233 - - - - - - 12.4
7/19/22 104.5 1545 67.1 0609 0.00 0.00 2.1 13.8 1147 SW | 214 55.1 75 14 102.6 1732 71.8 0620 12.3 2051 -5.3 1135 - - - - - - 12.5
7/18/22 107.8 1624 70.7 0609 0.00 0.00 1.9 13.2 1735 WNW | 289 54.9 70 10 104.3 1527 74.1 0622 12.7 2231 -5.7 1624 - - - - - - 12.5
7/17/22 111.6 1543 70.7 0611 0.00 0.00 2.0 11.2 1339 SW | 222 56.6 70 11 107.5 1558 74.8 0608 11.3 0142 -6.8 1459 - - - - - - 12.5
7/16/22 108.9 1602 68.5 0601 0.00 0.00 2.2 12.1 0944 WSW | 240 57.0 75 12 105.5 1701 72.6 0619 10.6 0023 -7.4 1435 - - - - - - 12.5
7/15/22 107.1 1622 67.9 0556 0.00 0.00 2.3 14.2 1120 SW | 227 57.8 77 14 103.6 1643 71.4 0559 8.5 0010 -7.4 1227 - - - - - - 12.5
7/14/22 104.0 1551 64.1 0551 0.00 0.00 2.3 13.8 0956 S | 190 57.4 83 18 102.2 1722 68.1 0502 9.9 0104 -6.3 1357 - - - - - - 12.5
7/13/22 101.7 1616 65.1 0616 0.00 0.00 2.2 13.4 1334 NNW | 329 55.5 77 18 98.8 1723 68.6 0626 9.9 0010 -6.2 1418 - - - - - - 12.5
Max 111.6 - 76.8 - 0.09 0.09 2.8 20.0 - - 64.1 93 28 107.5 - 78.4 - 14.9 - -2.5 - - - - - - - 12.5
Avg - - - - - - 2.1 - - - 56.7 - - - - - - - - - - - - - - - - -
Min 92.5 - 61.0 - 0.00 0.00 1.6 8.8 - - 43.1 68 6 92.2 - 66.0 - 4.6 - -7.5 - - - - - - - 12.4

Daily Bio-Meteorological Summary

Last 30 Days

Daily Data | America/Los_Angeles
as of 8/12/22 1:31 PM PDT
Date Daily Max Temp (°F) Daily Min Temp (°F) Daily Rain (In) GDDs (DL) GDDs (Mx/Mn) Seas GDDs (DL) Seas GDDs (Smpl) Chilling <=45F (hrs) Chill Hrs 32-45F (hrs) Utah Chilling (Units) Hrs 70-85F (hrs) Hrs > 95F (hrs) Powdery Mildew Stress (pts) Bee Hrs Today (Hrs) Hrs <= 32F (hrs) Hrs <= 28F (hrs)
8/11/22 98.8 65.3 0.00 31.3 32.1 3,189 3,185 0.0 0.0 -24.0 5.72 4.51 90 13.1 0.0 0.0
8/10/22 96.6 64.6 0.00 29.9 30.6 3,157 3,153 0.0 0.0 -24.0 7.17 0.34 100 13.1 0.0 0.0
8/9/22 98.7 68.9 0.00 31.4 33.8 3,127 3,122 0.0 0.0 -24.0 7.63 2.30 100 13.1 0.0 0.0
8/8/22 98.3 68.0 0.00 32.3 33.1 3,096 3,088 0.0 0.0 -24.0 13.16 3.50 100 13.1 0.0 0.0
8/7/22 99.5 66.3 0.00 32.6 32.9 3,064 3,055 0.0 0.0 -24.0 7.14 4.39 100 13.2 0.0 0.0
8/6/22 99.5 66.6 0.00 31.8 33.0 3,031 3,022 0.0 0.0 -24.0 7.69 3.64 100 13.2 0.0 0.0
8/5/22 92.5 68.0 0.09 30.6 30.3 2,999 2,989 0.0 0.0 -24.0 5.98 0.00 90 10.7 0.0 0.0
8/4/22 104.8 74.2 0.00 37.9 39.5 2,969 2,959 0.0 0.0 -24.0 11.53 5.75 100 13.2 0.0 0.0
8/3/22 104.4 71.2 0.00 36.9 37.8 2,931 2,919 0.0 0.0 -24.0 12.45 7.15 100 13.3 0.0 0.0
8/2/22 100.7 70.2 0.00 35.3 35.5 2,894 2,882 0.0 0.0 -24.0 12.09 6.78 90 13.3 0.0 0.0
8/1/22 103.7 72.2 0.00 36.7 37.9 2,859 2,846 0.0 0.0 -24.0 11.44 7.65 80 13.3 0.0 0.0
7/31/22 103.8 76.8 0.00 37.9 40.3 2,822 2,808 0.0 0.0 -24.0 11.07 5.86 70 13.4 0.0 0.0
7/30/22 105.6 72.2 0.00 38.4 38.9 2,784 2,768 0.0 0.0 -24.0 11.86 8.38 60 13.4 0.0 0.0
7/29/22 106.7 66.9 0.00 36.5 36.8 2,746 2,729 0.0 0.0 -24.0 6.54 8.24 50 13.4 0.0 0.0
7/28/22 102.3 69.3 0.00 35.2 35.8 2,709 2,692 0.0 0.0 -24.0 12.06 7.14 40 13.4 0.0 0.0
7/27/22 97.5 66.1 0.00 32.8 31.8 2,674 2,656 0.0 0.0 -24.0 5.91 4.02 30 13.5 0.0 0.0
7/26/22 101.5 66.7 0.00 34.4 34.1 2,641 2,625 0.0 0.0 -24.0 8.40 6.68 40 13.5 0.0 0.0
7/25/22 104.2 62.5 0.00 33.6 33.3 2,607 2,590 0.0 0.0 -22.5 4.55 8.12 30 13.5 0.0 0.0
7/24/22 105.1 61.0 0.00 33.0 33.0 2,573 2,557 0.0 0.0 -22.0 4.18 8.45 40 13.5 0.0 0.0
7/23/22 102.5 61.4 0.00 31.5 32.0 2,540 2,524 0.0 0.0 -22.5 4.50 6.62 50 13.6 0.0 0.0
7/22/22 105.1 62.3 0.00 33.0 33.7 2,509 2,492 0.0 0.0 -22.0 4.93 7.41 60 13.6 0.0 0.0
7/21/22 105.6 64.9 0.00 35.1 35.2 2,476 2,458 0.0 0.0 -24.0 6.11 8.42 70 13.6 0.0 0.0
7/20/22 106.4 66.6 0.00 36.1 36.5 2,440 2,423 0.0 0.0 -24.0 6.59 8.46 60 13.6 0.0 0.0
7/19/22 104.5 67.1 0.00 35.8 35.8 2,404 2,387 0.0 0.0 -24.0 6.90 8.55 50 13.7 0.0 0.0
7/18/22 107.8 70.7 0.00 35.9 39.3 2,369 2,351 0.0 0.0 -24.0 8.90 6.19 40 13.7 0.0 0.0
7/17/22 111.6 70.7 0.00 41.3 41.2 2,333 2,312 0.0 0.0 -24.0 9.97 10.15 30 13.7 0.0 0.0
7/16/22 108.9 68.5 0.00 38.9 38.7 2,291 2,270 0.0 0.0 -24.0 6.67 9.68 20 13.7 0.0 0.0
7/15/22 107.1 67.9 0.00 37.2 37.5 2,252 2,232 0.0 0.0 -24.0 6.67 8.69 10 13.7 0.0 0.0
7/14/22 104.0 64.1 0.00 34.6 34.0 2,215 2,194 0.0 0.0 -23.5 5.03 7.75 0 13.8 0.0 0.0
7/13/22 101.7 65.1 0.00 32.9 33.4 2,181 2,160 0.0 0.0 -24.0 5.96 6.15 0 13.8 0.0 0.0
Max 111.6 76.8 0.09 41.3 41.2 - - 0.0 0.0 -22.0 13.16 10.15 - 13.8 0.0 0.0
Avg - - - 34.7 35.3 - - 0.0 0.0 -23.8 7.96 6.37 - 13.4 0.0 0.0
Min 92.5 61.0 0.00 29.9 30.3 - - 0.0 0.0 -24.0 4.18 0.00 - 10.7 0.0 0.0
Total - - - 1,040.8 1,057.9 - - 0.0 0.0 -712.5 238.79 190.96 - 400.6 0.0 0.0

Climate Summary

Lindcove R.E.C.

Current Year | Showing 1/1/22 - 8/11/22
as of 8/12/22 1:31 PM PDT
Temperature (°F) Max Wind Gust (mph) Precip (in) Days
Month Days Avg High Avg Low Max Min Avg Max Total Daily Min Temp < 28 Daily Min Temp < 32 Daily Max Temp > 90 Daily Max Temp > 100 Daily Rain > 0.01 Daily Rain > 0.1
Jan 2022 31 64.5 34.5 70.4 29.4 7.6 10.7 0 0 11 0 0 0 0
Feb 2022 28 70.3 33.8 87.1 29 9.2 21.9 0.45 0 9 0 0 1 1
Mar 2022 31 75.3 41.7 92.3 34.2 11.5 23.2 1.27 0 0 3 0 3 2
Apr 2022 30 79.7 44.4 97.1 31.7 14.1 21.3 0.29 0 1 3 0 2 2
May 2022 31 87.1 50.2 104.8 39.1 14.4 18 0 0 0 11 2 0 0
Jun 2022 30 97.2 58.6 108.3 47.4 15.8 36.8 0.12 0 0 25 13 1 1
Jul 2022 31 101.9 64.7 111.6 55.2 13.6 17.5 0 0 0 29 21 0 0
Aug 2022 11 99.8 68.7 104.8 64.6 13.9 20 0.09 0 0 11 4 1 0
Total 223 - - - - - - 2.22 0 21 82 40 8 6
Average 27.9 83.3 48 83.3 48 12.4 - 0.28 0 2.6 10.2 5 1 0.8
Maximum 31 101.9 68.7 111.6 - - 36.8 1.27 0 11 29 21 3 2
Minimum 11 64.5 33.8 - 29 - - 0 0 0 0 0 0 0

Climate Summary

Lindcove R.E.C.

Last Year | Showing 1/1/21 - 12/31/21
as of 8/12/22 1:31 PM PDT
Temperature (°F) Max Wind Gust (mph) Precip (in) Days
Month Days Avg High Avg Low Max Min Avg Max Total Daily Min Temp < 28 Daily Min Temp < 32 Daily Max Temp > 90 Daily Max Temp > 100 Daily Rain > 0.01 Daily Rain > 0.1
Jan 2021 31 64.3 35.6 76.4 30 10.3 18.2 1.77 0 2 0 0 7 4
Feb 2021 28 68.4 37.3 79.3 32.3 10.6 20.2 0.74 0 0 0 0 2 2
Mar 2021 31 71.1 39.2 86.7 32.8 12.8 24.3 1.23 0 0 0 0 4 4
Apr 2021 30 82.7 45.4 97.1 40.6 13.1 19.3 0.1 0 0 5 0 1 0
May 2021 31 90.1 52.2 104.9 42.4 15 21.3 0 0 0 18 1 0 0
Jun 2021 30 99.2 62.3 114.7 46.9 14.1 26.3 0 0 0 25 14 0 0
Jul 2021 31 104.7 68 113.5 62.3 13.5 16.7 0.01 0 0 31 29 0 0
Aug 2021 31 100.8 63.2 107.9 57.7 12.4 18 0 0 0 28 21 0 0
Sep 2021 30 94.2 57.6 109.1 48.3 11.3 17.3 0 0 0 20 6 0 0
Oct 2021 31 78.5 46.2 90.4 35.4 10.8 20.4 2.09 0 0 2 0 3 2
Nov 2021 30 70.9 43.9 78 33.6 8 14.5 0.13 0 0 0 0 2 1
Dec 2021 31 58.2 38 81 29.9 9.4 25.2 4.85 0 3 0 0 11 10
Total 365 - - - - - - 10.92 0 5 129 71 30 23
Average 30.4 82 49.1 82 49.1 11.8 - 0.91 0 0.4 10.8 5.9 2.5 1.9
Maximum 31 104.7 68 114.7 - - 26.3 4.85 0 3 31 29 11 10
Minimum 28 58.2 35.6 - 29.9 - - 0 0 0 0 0 0 0
Calm: 0.0%
Calm: 0.0%